Time,TemperatureF,DewpointF,PressureIn,WindDirection,WindDirectionDegrees,WindSpeedMPH,WindSpeedGustMPH,Humidity,HourlyPrecipIn,Conditions,Clouds,dailyrainin,SoftwareType,DateUTC
2013-09-22 00:00:00,77.5,75.0,29.80,WSW,258,0.0,0.0,92,0.00,,,0.00,WeatherDisplay:10.37,2013-09-22 04:00:00,
2013-09-22 00:10:00,77.7,74.9,29.80,WSW,258,0.0,0.0,91,0.00,,,0.00,WeatherDisplay:10.37,2013-09-22 04:10:00,
2013-09-22 00:20:00,77.8,75.3,29.80,WSW,258,0.0,0.0,92,0.00,,,0.00,WeatherDisplay:10.37,2013-09-22 04:20:00,
2013-09-22 00:30:00,77.5,75.0,29.80,WSW,258,0.0,0.0,92,0.00,,,0.00,WeatherDisplay:10.37,2013-09-22 04:30:00,
2013-09-22 00:40:00,77.4,74.9,29.80,WSW,258,0.0,0.0,92,0.00,,,0.00,WeatherDisplay:10.37,2013-09-22 04:40:00,
2013-09-22 00:50:00,77.4,75.2,29.79,WSW,258,0.0,0.0,93,0.00,,,0.00,WeatherDisplay:10.37,2013-09-22 04:50:00,
2013-09-22 01:00:00,77.2,75.0,29.79,WSW,258,0.0,0.0,93,0.00,,,0.00,WeatherDisplay:10.37,2013-09-22 05:00:00,
2013-09-22 01:10:00,77.2,74.7,29.79,WSW,258,0.0,0.0,92,0.00,,,0.00,WeatherDisplay:10.37,2013-09-22 05:10:00,
2013-09-22 01:20:00,77.0,74.5,29.79,WSW,258,0.0,0.0,92,0.00,,,0.00,WeatherDisplay:10.37,2013-09-22 05:20:00,
2013-09-22 01:30:00,77.0,74.8,29.79,WSW,258,0.0,0.0,93,0.00,,,0.00,WeatherDisplay:10.37,2013-09-22 05:30:00,
2013-09-22 01:40:00,76.9,74.4,29.79,WSW,258,0.0,0.0,92,0.00,,,0.00,WeatherDisplay:10.37,2013-09-22 05:40:00,
2013-09-22 01:50:00,76.9,74.7,29.79,WSW,258,0.0,0.0,93,0.00,,,0.00,WeatherDisplay:10.37,2013-09-22 05:50:00,
2013-09-22 02:00:00,76.8,74.6,29.79,WSW,258,0.0,0.0,93,0.00,,,0.00,WeatherDisplay:10.37,2013-09-22 06:00:00,
2013-09-22 02:10:00,76.9,74.7,29.79,WSW,258,0.0,0.0,93,0.00,,,0.00,WeatherDisplay:10.37,2013-09-22 06:10:00,
2013-09-22 02:20:00,77.0,74.8,29.79,WSW,258,0.0,0.0,93,0.00,,,0.00,WeatherDisplay:10.37,2013-09-22 06:20:00,
2013-09-22 02:30:00,77.2,75.3,29.78,WSW,258,0.0,0.0,94,0.00,,,0.00,WeatherDisplay:10.37,2013-09-22 06:30:00,
2013-09-22 02:40:00,77.1,75.2,29.78,WSW,258,0.0,0.0,94,0.00,,,0.00,WeatherDisplay:10.37,2013-09-22 06:40:00,
2013-09-22 02:50:00,77.2,75.3,29.78,WSW,258,0.0,0.0,94,0.00,,,0.00,WeatherDisplay:10.37,2013-09-22 06:50:00,
2013-09-22 03:00:00,77.2,75.3,29.78,WSW,258,0.0,0.0,94,0.00,,,0.00,WeatherDisplay:10.37,2013-09-22 07:00:00,
2013-09-22 03:10:00,77.3,75.4,29.77,WSW,258,0.0,0.0,94,0.00,,,0.00,WeatherDisplay:10.37,2013-09-22 07:10:00,
2013-09-22 03:20:00,77.5,75.6,29.77,WSW,258,0.0,0.0,94,0.00,,,0.00,WeatherDisplay:10.37,2013-09-22 07:20:00,
2013-09-22 03:30:00,77.4,75.5,29.77,WSW,258,0.0,1.0,94,0.00,,,0.00,WeatherDisplay:10.37,2013-09-22 07:30:00,
2013-09-22 03:40:00,77.3,75.4,29.77,WSW,258,0.0,0.0,94,0.00,,,0.00,WeatherDisplay:10.37,2013-09-22 07:40:00,
2013-09-22 03:50:00,77.3,75.4,29.77,WSW,258,0.0,0.0,94,0.00,,,0.00,WeatherDisplay:10.37,2013-09-22 07:50:00,
2013-09-22 04:00:00,77.2,75.3,29.77,WSW,258,0.0,0.0,94,0.00,,,0.00,WeatherDisplay:10.37,2013-09-22 08:00:00,
2013-09-22 04:20:00,77.7,75.6,29.77,SE,132,0.0,2.0,93,0.00,,,0.00,WeatherDisplay:10.37,2013-09-22 08:20:00,
2013-09-22 04:30:00,78.3,75.7,29.77,ESE,107,0.0,1.0,92,0.00,,,0.00,WeatherDisplay:10.37,2013-09-22 08:30:00,
2013-09-22 04:40:00,78.0,75.4,29.77,SE,132,0.0,2.0,92,0.00,,,0.00,WeatherDisplay:10.37,2013-09-22 08:40:00,
2013-09-22 04:50:00,77.5,75.3,29.77,SE,132,0.0,1.0,93,0.00,,,0.00,WeatherDisplay:10.37,2013-09-22 08:50:00,
2013-09-22 05:00:00,77.6,75.4,29.77,SE,131,0.0,1.0,93,0.00,,,0.00,WeatherDisplay:10.37,2013-09-22 09:00:00,
2013-09-22 05:10:00,78.3,75.4,29.77,SE,125,0.0,5.0,91,0.00,,,0.00,WeatherDisplay:10.37,2013-09-22 09:10:00,
2013-09-22 05:20:00,78.7,75.5,29.77,ESE,122,0.0,3.0,90,0.00,,,0.00,WeatherDisplay:10.37,2013-09-22 09:20:00,
2013-09-22 05:30:00,78.7,75.5,29.76,ESE,112,0.0,4.0,90,0.00,,,0.00,WeatherDisplay:10.37,2013-09-22 09:30:00,
2013-09-22 05:40:00,78.8,75.6,29.76,ESE,121,1.0,6.0,90,0.00,,,0.00,WeatherDisplay:10.37,2013-09-22 09:40:00,
2013-09-22 05:50:00,78.9,75.7,29.76,SE,126,0.0,4.0,90,0.00,,,0.00,WeatherDisplay:10.37,2013-09-22 09:50:00,
2013-09-22 06:00:00,78.8,75.3,29.76,ESE,120,1.0,4.0,89,0.00,,,0.00,WeatherDisplay:10.37,2013-09-22 10:00:00,
2013-09-22 06:10:00,78.8,75.3,29.77,ESE,104,0.0,3.0,89,0.00,,,0.00,WeatherDisplay:10.37,2013-09-22 10:10:00,
2013-09-22 06:20:00,78.8,75.6,29.77,ESE,105,0.0,3.0,90,0.00,,,0.00,WeatherDisplay:10.37,2013-09-22 10:20:00,
2013-09-22 06:30:00,78.7,75.5,29.77,ESE,114,0.0,3.0,90,0.00,,,0.00,WeatherDisplay:10.37,2013-09-22 10:30:00,
2013-09-22 06:50:00,79.1,75.9,29.77,SE,127,0.0,3.0,90,0.00,,,0.00,WeatherDisplay:10.37,2013-09-22 10:50:00,
2013-09-22 07:10:00,79.3,76.1,29.77,SE,130,0.0,2.0,90,0.00,,,0.00,WeatherDisplay:10.37,2013-09-22 11:10:00,
2013-09-22 07:20:00,79.2,76.0,29.77,SE,133,0.0,4.0,90,0.00,,,0.00,WeatherDisplay:10.37,2013-09-22 11:20:00,
2013-09-22 07:30:00,79.3,75.8,29.77,SE,143,0.0,3.0,89,0.00,,,0.00,WeatherDisplay:10.37,2013-09-22 11:30:00,
2013-09-22 07:40:00,79.7,76.1,29.78,SE,144,0.0,3.0,89,0.00,,,0.00,WeatherDisplay:10.37,2013-09-22 11:40:00,
2013-09-22 07:50:00,80.1,75.9,29.78,SE,137,0.0,3.0,87,0.00,,,0.00,WeatherDisplay:10.37,2013-09-22 11:50:00,
2013-09-22 08:00:00,80.3,76.1,29.78,SE,146,0.0,4.0,87,0.00,,,0.00,WeatherDisplay:10.37,2013-09-22 12:00:00,
2013-09-22 08:10:00,80.6,76.1,29.78,SE,146,0.0,3.0,86,0.00,,,0.00,WeatherDisplay:10.37,2013-09-22 12:10:00,
2013-09-22 08:20:00,80.7,76.5,29.78,SE,141,0.0,3.0,87,0.00,,,0.00,WeatherDisplay:10.37,2013-09-22 12:20:00,
2013-09-22 08:40:00,81.5,75.1,29.79,South,181,0.0,4.0,81,0.00,CLR,,0.00,WeatherDisplay:10.37,2013-09-22 12:40:00,
2013-09-22 08:50:00,81.7,75.3,29.79,South,177,1.0,4.0,81,0.00,CLR,,0.00,WeatherDisplay:10.37,2013-09-22 12:50:00,
2013-09-22 09:00:00,82.0,75.2,29.79,South,177,2.0,8.0,80,0.00,CLR,,0.00,WeatherDisplay:10.37,2013-09-22 13:00:00,
2013-09-22 09:10:00,82.5,75.7,29.80,SSE,151,0.0,3.0,80,0.00,CLR,,0.00,WeatherDisplay:10.37,2013-09-22 13:10:00,
2013-09-22 09:20:00,83.2,76.4,29.80,SSE,153,0.0,7.0,80,0.00,CLR,,0.00,WeatherDisplay:10.37,2013-09-22 13:20:00,
2013-09-22 09:30:00,83.5,77.1,29.80,SE,141,1.0,5.0,81,0.00,CLR,,0.00,WeatherDisplay:10.37,2013-09-22 13:30:00,
2013-09-22 09:40:00,83.9,75.9,29.81,South,170,2.0,7.0,77,0.00,CLR,,0.00,WeatherDisplay:10.37,2013-09-22 13:40:00,
2013-09-22 09:50:00,84.5,75.7,29.81,South,187,3.0,7.0,75,0.00,CLR,,0.00,WeatherDisplay:10.37,2013-09-22 13:50:00,
2013-09-22 10:00:00,85.3,75.6,29.81,SSW,197,5.0,8.0,73,0.00,CLR,,0.00,WeatherDisplay:10.37,2013-09-22 14:00:00,
2013-09-22 10:10:00,85.2,76.4,29.82,SSW,194,3.0,8.0,75,0.00,CLR,,0.00,WeatherDisplay:10.37,2013-09-22 14:10:00,
2013-09-22 10:20:00,84.6,76.2,29.82,South,172,2.0,6.0,76,0.00,CLR,,0.00,WeatherDisplay:10.37,2013-09-22 14:20:00,
2013-09-22 10:30:00,84.7,75.5,29.82,South,174,2.0,8.0,74,0.00,CLR,,0.00,WeatherDisplay:10.37,2013-09-22 14:30:00,
2013-09-22 10:40:00,86.0,76.3,29.82,South,189,3.0,9.0,73,0.00,CLR,,0.00,WeatherDisplay:10.37,2013-09-22 14:40:00,
2013-09-22 10:50:00,85.6,76.0,29.83,South,170,2.0,10.0,73,0.00,CLR,,0.00,WeatherDisplay:10.37,2013-09-22 14:50:00,
2013-09-22 11:00:00,86.1,76.4,29.82,South,188,3.0,8.0,73,0.00,CLR,,0.00,WeatherDisplay:10.37,2013-09-22 15:00:00,
2013-09-22 11:10:00,86.9,77.6,29.83,South,181,3.0,8.0,74,0.00,CLR,,0.00,WeatherDisplay:10.37,2013-09-22 15:10:00,
2013-09-22 11:20:00,88.2,77.2,29.83,South,180,2.0,12.0,70,0.00,CLR,,0.00,WeatherDisplay:10.37,2013-09-22 15:20:00,
2013-09-22 11:30:00,88.4,76.1,29.82,SSE,168,2.0,12.0,67,0.00,CLR,,0.00,WeatherDisplay:10.37,2013-09-22 15:30:00,
2013-09-22 11:40:00,88.2,76.3,29.82,South,182,1.0,12.0,68,0.00,CLR,,0.00,WeatherDisplay:10.37,2013-09-22 15:40:00,
2013-09-22 11:50:00,88.4,77.0,29.82,South,184,3.0,9.0,69,0.00,CLR,,0.00,WeatherDisplay:10.37,2013-09-22 15:50:00,
2013-09-22 12:00:00,87.5,76.1,29.82,South,185,2.0,10.0,69,0.00,CLR,,0.00,WeatherDisplay:10.37,2013-09-22 16:00:00,
2013-09-22 12:20:00,88.2,76.7,29.82,South,180,3.0,9.0,69,0.00,CLR,,0.00,WeatherDisplay:10.37,2013-09-22 16:20:00,
2013-09-22 12:30:00,88.9,77.0,29.81,SSE,166,3.0,9.0,68,0.00,CLR,,0.00,WeatherDisplay:10.37,2013-09-22 16:30:00,
2013-09-22 12:40:00,89.1,76.3,29.82,South,183,3.0,13.0,66,0.00,CLR,,0.00,WeatherDisplay:10.37,2013-09-22 16:40:00,
2013-09-22 12:50:00,88.6,76.7,29.82,South,179,3.0,8.0,68,0.00,CLR,,0.00,WeatherDisplay:10.37,2013-09-22 16:50:00,
2013-09-22 13:00:00,89.7,76.8,29.81,SSW,193,2.0,8.0,66,0.00,CLR,,0.00,WeatherDisplay:10.37,2013-09-22 17:00:00,
2013-09-22 13:10:00,89.4,77.0,29.81,South,178,2.0,12.0,67,0.00,CLR,,0.00,WeatherDisplay:10.37,2013-09-22 17:10:00,
2013-09-22 13:20:00,88.9,76.9,29.81,South,174,5.0,10.0,68,0.00,CLR,,0.00,WeatherDisplay:10.37,2013-09-22 17:20:00,
2013-09-22 13:30:00,89.0,77.6,29.81,SSE,161,3.0,8.0,69,0.00,CLR,,0.00,WeatherDisplay:10.37,2013-09-22 17:30:00,
2013-09-22 13:40:00,89.6,74.9,29.80,South,180,5.0,9.0,62,0.00,CLR,,0.00,WeatherDisplay:10.37,2013-09-22 17:40:00,
2013-09-22 13:50:00,89.6,75.3,29.80,SSW,196,3.0,7.0,63,0.00,CLR,,0.00,WeatherDisplay:10.37,2013-09-22 17:50:00,
2013-09-22 14:00:00,89.7,75.9,29.80,SSW,198,5.0,12.0,64,0.00,CLR,,0.00,WeatherDisplay:10.37,2013-09-22 18:00:00,
2013-09-22 14:10:00,90.1,76.3,29.80,South,174,3.0,8.0,64,0.00,CLR,,0.00,WeatherDisplay:10.37,2013-09-22 18:10:00,
2013-09-22 14:20:00,91.0,77.1,29.80,SSW,202,5.0,8.0,64,0.00,CLR,,0.00,WeatherDisplay:10.37,2013-09-22 18:20:00,
2013-09-22 14:30:00,87.8,75.5,29.80,SSW,194,6.0,12.0,67,0.00,CLR,,0.00,WeatherDisplay:10.37,2013-09-22 18:30:00,
2013-09-22 14:40:00,88.6,76.3,29.80,SSW,192,3.0,9.0,67,0.00,CLR,,0.00,WeatherDisplay:10.37,2013-09-22 18:40:00,
2013-09-22 14:50:00,89.4,77.0,29.80,South,189,3.0,9.0,67,0.00,CLR,,0.00,WeatherDisplay:10.37,2013-09-22 18:50:00,
2013-09-22 15:00:00,88.9,76.5,29.80,SSW,197,2.0,12.0,67,0.00,CLR,,0.00,WeatherDisplay:10.37,2013-09-22 19:00:00,
2013-09-22 15:10:00,89.2,76.4,29.79,South,188,2.0,10.0,66,0.00,CLR,,0.00,WeatherDisplay:10.37,2013-09-22 19:10:00,
2013-09-22 15:20:00,88.4,76.0,29.79,SSW,208,2.0,8.0,67,0.00,CLR,,0.00,WeatherDisplay:10.37,2013-09-22 19:20:00,
2013-09-22 15:30:00,88.8,76.4,29.78,SW,217,5.0,10.0,67,0.00,CLR,,0.00,WeatherDisplay:10.37,2013-09-22 19:30:00,
2013-09-22 15:40:00,88.4,76.5,29.78,SSW,207,2.0,9.0,68,0.00,CLR,,0.00,WeatherDisplay:10.37,2013-09-22 19:40:00,
2013-09-22 15:50:00,88.5,76.6,29.78,SSW,192,2.0,9.0,68,0.00,CLR,,0.00,WeatherDisplay:10.37,2013-09-22 19:50:00,
2013-09-22 16:00:00,88.8,76.4,29.77,SW,218,3.0,8.0,67,0.00,CLR,,0.00,WeatherDisplay:10.37,2013-09-22 20:00:00,
2013-09-22 16:10:00,88.4,76.5,29.77,SW,221,3.0,9.0,68,0.00,CLR,,0.00,WeatherDisplay:10.37,2013-09-22 20:10:00,
2013-09-22 16:20:00,87.3,75.4,29.77,SW,224,2.0,12.0,68,0.00,CLR,,0.00,WeatherDisplay:10.37,2013-09-22 20:20:00,
2013-09-22 16:30:00,87.3,76.7,29.77,SW,222,2.0,7.0,71,0.00,CLR,,0.00,WeatherDisplay:10.37,2013-09-22 20:30:00,
2013-09-22 16:40:00,88.9,76.0,29.76,SW,221,3.0,10.0,66,0.00,CLR,,0.00,WeatherDisplay:10.37,2013-09-22 20:40:00,
2013-09-22 16:50:00,87.0,76.4,29.76,SW,217,2.0,7.0,71,0.00,CLR,,0.00,WeatherDisplay:10.37,2013-09-22 20:50:00,
2013-09-22 17:00:00,88.1,77.1,29.76,SSW,196,2.0,9.0,70,0.00,CLR,,0.00,WeatherDisplay:10.37,2013-09-22 21:00:00,
2013-09-22 17:10:00,88.4,76.5,29.76,WSW,238,7.0,10.0,68,0.00,CLR,,0.00,WeatherDisplay:10.37,2013-09-22 21:10:00,
2013-09-22 17:20:00,87.8,75.9,29.77,SW,232,5.0,9.0,68,0.00,CLR,,0.00,WeatherDisplay:10.37,2013-09-22 21:20:00,
2013-09-22 17:30:00,87.6,77.5,29.77,SSW,212,2.0,8.0,72,0.00,CLR,,0.00,WeatherDisplay:10.37,2013-09-22 21:30:00,
2013-09-22 17:40:00,86.9,75.9,29.76,SW,214,3.0,7.0,70,0.00,CLR,,0.00,WeatherDisplay:10.37,2013-09-22 21:40:00,
2013-09-22 17:50:00,86.9,76.3,29.77,SSW,209,2.0,6.0,71,0.00,CLR,,0.00,WeatherDisplay:10.37,2013-09-22 21:50:00,
2013-09-22 18:00:00,86.6,76.1,29.77,SW,226,2.0,9.0,71,0.00,CLR,,0.00,WeatherDisplay:10.37,2013-09-22 22:00:00,
2013-09-22 18:10:00,86.4,76.3,29.77,SW,218,2.0,6.0,72,0.00,CLR,,0.00,WeatherDisplay:10.37,2013-09-22 22:10:00,
2013-09-22 18:20:00,85.8,76.5,29.77,SSW,204,2.0,7.0,74,0.00,CLR,,0.00,WeatherDisplay:10.37,2013-09-22 22:20:00,
2013-09-22 18:30:00,85.2,76.0,29.78,SW,230,3.0,7.0,74,0.00,CLR,,0.00,WeatherDisplay:10.37,2013-09-22 22:30:00,
2013-09-22 18:40:00,84.9,76.5,29.78,WSW,238,2.0,7.0,76,0.00,CLR,,0.00,WeatherDisplay:10.37,2013-09-22 22:40:00,
2013-09-22 18:50:00,84.6,76.2,29.79,WSW,241,2.0,5.0,76,0.00,CLR,,0.00,WeatherDisplay:10.37,2013-09-22 22:50:00,
2013-09-22 19:00:00,84.3,76.3,29.79,WSW,254,2.0,6.0,77,0.00,CLR,,0.00,WeatherDisplay:10.37,2013-09-22 23:00:00,
2013-09-22 19:10:00,84.1,76.5,29.79,WSW,239,2.0,5.0,78,0.00,CLR,,0.00,WeatherDisplay:10.37,2013-09-22 23:10:00,
2013-09-22 19:20:00,83.7,76.1,29.79,WSW,241,2.0,5.0,78,0.00,CLR,,0.00,WeatherDisplay:10.37,2013-09-22 23:20:00,
2013-09-22 19:30:00,83.4,76.2,29.79,WSW,251,0.0,3.0,79,0.00,CLR,,0.00,WeatherDisplay:10.37,2013-09-22 23:30:00,
2013-09-22 19:40:00,83.0,76.5,29.79,WSW,251,0.0,2.0,81,0.00,CLR,,0.00,WeatherDisplay:10.37,2013-09-22 23:40:00,
2013-09-22 19:50:00,82.7,76.6,29.79,WSW,251,0.0,0.0,82,0.00,CLR,,0.00,WeatherDisplay:10.37,2013-09-22 23:50:00,
2013-09-22 20:00:00,82.5,76.4,29.80,WSW,251,0.0,1.0,82,0.00,CLR,,0.00,WeatherDisplay:10.37,2013-09-23 00:00:00,
2013-09-22 20:10:00,82.2,76.2,29.80,WSW,251,0.0,0.0,82,0.00,CLR,,0.00,WeatherDisplay:10.37,2013-09-23 00:10:00,
2013-09-22 20:20:00,82.0,76.3,29.81,WSW,251,0.0,0.0,83,0.00,CLR,,0.00,WeatherDisplay:10.37,2013-09-23 00:20:00,
2013-09-22 20:30:00,81.5,76.9,29.81,WSW,251,0.0,0.0,86,0.00,,,0.00,WeatherDisplay:10.37,2013-09-23 00:30:00,
2013-09-22 20:40:00,81.3,76.4,29.81,WSW,251,0.0,0.0,85,0.00,,,0.00,WeatherDisplay:10.37,2013-09-23 00:40:00,
2013-09-22 20:50:00,81.6,76.6,29.81,WSW,251,0.0,0.0,85,0.00,,,0.00,WeatherDisplay:10.37,2013-09-23 00:50:00,
2013-09-22 21:00:00,81.2,76.6,29.82,WSW,251,0.0,0.0,86,0.00,,,0.00,WeatherDisplay:10.37,2013-09-23 01:00:00,
2013-09-22 21:10:00,81.3,77.1,29.82,WSW,251,0.0,0.0,87,0.00,,,0.00,WeatherDisplay:10.37,2013-09-23 01:10:00,
2013-09-22 21:20:00,80.9,77.0,29.82,WSW,251,0.0,0.0,88,0.00,,,0.00,WeatherDisplay:10.37,2013-09-23 01:20:00,
2013-09-22 21:30:00,80.7,76.8,29.82,WSW,251,0.0,0.0,88,0.00,,,0.00,WeatherDisplay:10.37,2013-09-23 01:30:00,
2013-09-22 21:40:00,81.1,76.9,29.83,WSW,251,0.0,0.0,87,0.00,,,0.00,WeatherDisplay:10.37,2013-09-23 01:40:00,
2013-09-22 21:50:00,80.5,77.0,29.83,WSW,251,0.0,0.0,89,0.00,,,0.00,WeatherDisplay:10.37,2013-09-23 01:50:00,
2013-09-22 22:00:00,80.1,76.9,29.83,WSW,251,0.0,0.0,90,0.00,,,0.00,WeatherDisplay:10.37,2013-09-23 02:00:00,
2013-09-22 22:10:00,79.8,76.9,29.84,WSW,251,0.0,0.0,91,0.00,,,0.00,WeatherDisplay:10.37,2013-09-23 02:10:00,
2013-09-22 22:20:00,79.9,77.1,29.84,WSW,251,0.0,0.0,91,0.00,,,0.00,WeatherDisplay:10.37,2013-09-23 02:20:00,
2013-09-22 22:30:00,80.0,77.1,29.84,WSW,251,0.0,0.0,91,0.00,,,0.00,WeatherDisplay:10.37,2013-09-23 02:30:00,
2013-09-22 22:40:00,80.0,77.1,29.85,WSW,251,0.0,0.0,91,0.00,,,0.00,WeatherDisplay:10.37,2013-09-23 02:40:00,
2013-09-22 22:50:00,80.2,77.3,29.85,WSW,251,0.0,0.0,91,0.00,,,0.00,WeatherDisplay:10.37,2013-09-23 02:50:00,
2013-09-22 23:00:00,79.8,76.9,29.84,WSW,251,0.0,0.0,91,0.00,,,0.00,WeatherDisplay:10.37,2013-09-23 03:00:00,
2013-09-22 23:10:00,79.5,77.0,29.84,WSW,251,0.0,0.0,92,0.00,,,0.00,WeatherDisplay:10.37,2013-09-23 03:10:00,
2013-09-22 23:20:00,79.6,77.1,29.84,WSW,251,0.0,0.0,92,0.00,,,0.00,WeatherDisplay:10.37,2013-09-23 03:20:00,
2013-09-22 23:30:00,80.1,77.6,29.85,WSW,251,0.0,1.0,92,0.00,,,0.00,WeatherDisplay:10.37,2013-09-23 03:30:00,
2013-09-22 23:40:00,80.5,77.6,29.84,SW,217,0.0,2.0,91,0.00,,,0.00,WeatherDisplay:10.37,2013-09-23 03:40:00,
2013-09-22 23:50:00,80.9,77.7,29.84,South,190,0.0,4.0,90,0.00,,,0.00,WeatherDisplay:10.37,2013-09-23 03:50:00,